When you browse on this site, cookies collect data to enhance your experience and personalize the content and advertising you see.
Visit our Privacy Policy to learn more. By continuing to use the site, you agree to this use of cookies and data.
EN

Hourly Weather Goianesia

Today, 27 September, Sunday

Time Temperature Precipitation Wind Pressure Humidity
00:00 +27°C° 0 mm 1 mps 703 mmHg 30%
01:00 +27°C° 0 mm 1 mps 703 mmHg 32%
02:00 +26°C° 0 mm 1 mps 703 mmHg 34%
03:00 +26°C° 0 mm 1 mps 702 mmHg 35%
04:00 +25°C° 0 mm 1 mps 703 mmHg 36%
05:00 +24°C° 0 mm 1 mps 703 mmHg 38%
06:00 +24°C° 0 mm 1 mps 703 mmHg 39%
07:00 +27°C° 0 mm 1 mps 704 mmHg 35%
08:00 +29°C° 0 mm 2 mps 705 mmHg 31%
09:00 +32°C° 0 mm 2 mps 706 mmHg 26%
10:00 +35°C° 0 mm 2 mps 706 mmHg 24%
11:00 +37°C° 0 mm 2 mps 706 mmHg 21%
12:00 +39°C° 0 mm 2 mps 706 mmHg 18%
13:00 +39°C° 0 mm 2 mps 705 mmHg 17%
14:00 +40°C° 0 mm 2 mps 704 mmHg 15%
15:00 +40°C° 0 mm 2 mps 703 mmHg 13%
16:00 +38°C° 0 mm 2 mps 703 mmHg 14%
17:00 +37°C° 0 mm 2 mps 703 mmHg 16%
18:00 +34°C° 0 mm 1 mps 702 mmHg 17%
19:00 +33°C° 0 mm 1 mps 703 mmHg 19%
20:00 +31°C° 0 mm 1 mps 703 mmHg 20%
21:00 +30°C° 0 mm 1 mps 703 mmHg 21%
22:00 +29°C° 0 mm 1 mps 703 mmHg 22%
23:00 +29°C° 0 mm 1 mps 703 mmHg 23%

Tomorrow, 28 September, Monday

Time Temperature Precipitation Wind Pressure Humidity
00:00 +28°C° 0 mm 1 mps 703 mmHg 24%
01:00 +28°C° 0 mm 1 mps 703 mmHg 25%
02:00 +27°C° 0 mm 1 mps 702 mmHg 26%
03:00 +26°C° 0 mm 1 mps 702 mmHg 27%
04:00 +26°C° 0 mm 1 mps 702 mmHg 28%
05:00 +23°C° 0 mm 0 mps 702 mmHg 30%
06:00 +22°C° 0 mm 0 mps 702 mmHg 31%
07:00 +27°C° 0 mm 1 mps 703 mmHg 27%
08:00 +31°C° 0 mm 1 mps 704 mmHg 23%
09:00 +34°C° 0 mm 1 mps 705 mmHg 19%
10:00 +36°C° 0 mm 1 mps 705 mmHg 17%
11:00 +39°C° 0 mm 2 mps 705 mmHg 15%
12:00 +41°C° 0 mm 2 mps 705 mmHg 13%
13:00 +41°C° 0 mm 2 mps 704 mmHg 12%
14:00 +41°C° 0 mm 2 mps 703 mmHg 11%
15:00 +42°C° 0 mm 2 mps 703 mmHg 10%
16:00 +40°C° 0 mm 1 mps 702 mmHg 12%
17:00 +37°C° 0 mm 1 mps 702 mmHg 13%
18:00 +35°C° 0 mm 1 mps 702 mmHg 15%
19:00 +34°C° 0 mm 1 mps 702 mmHg 16%
20:00 +33°C° 0 mm 1 mps 703 mmHg 17%
21:00 +31°C° 0 mm 1 mps 703 mmHg 18%
22:00 +31°C° 0 mm 1 mps 703 mmHg 19%
23:00 +30°C° 0 mm 1 mps 703 mmHg 21%

Day after tomorrow, 29 September, Tuesday

Time Temperature Precipitation Wind Pressure Humidity
00:00 +29°C° 0 mm 1 mps 703 mmHg 22%
01:00 +28°C° 0 mm 1 mps 703 mmHg 23%
02:00 +28°C° 0 mm 1 mps 702 mmHg 24%
03:00 +27°C° 0 mm 1 mps 701 mmHg 25%
04:00 +26°C° 0 mm 1 mps 702 mmHg 26%
05:00 +26°C° 0 mm 1 mps 702 mmHg 26%
06:00 +26°C° 0 mm 1 mps 702 mmHg 27%
07:00 +29°C° 0 mm 2 mps 703 mmHg 23%
08:00 +32°C° 0 mm 2 mps 704 mmHg 20%
09:00 +36°C° 0 mm 3 mps 705 mmHg 16%
10:00 +38°C° 0 mm 3 mps 705 mmHg 14%
11:00 +40°C° 0 mm 3 mps 705 mmHg 12%
12:00 +43°C° 0 mm 3 mps 704 mmHg 10%
13:00 +43°C° 0 mm 3 mps 704 mmHg 10%
14:00 +43°C° 0 mm 3 mps 703 mmHg 10%
15:00 +44°C° 0 mm 3 mps 703 mmHg 9%
16:00 +42°C° 0 mm 3 mps 702 mmHg 10%
17:00 +39°C° 0 mm 3 mps 702 mmHg 12%
18:00 +38°C° 0 mm 3 mps 702 mmHg 13%
19:00 +36°C° 0 mm 2 mps 702 mmHg 15%
20:00 +34°C° 0 mm 2 mps 703 mmHg 16%
21:00 +32°C° 0 mm 1 mps 703 mmHg 18%
22:00 +31°C° 0 mm 2 mps 703 mmHg 19%
23:00 +30°C° 0 mm 2 mps 703 mmHg 20%

30 September, Wednesday

Time Temperature Precipitation Wind Pressure Humidity
00:00 +30°C° 0 mm 2 mps 703 mmHg 22%
01:00 +29°C° 0 mm 2 mps 703 mmHg 23%
02:00 +29°C° 0 mm 3 mps 703 mmHg 23%
03:00 +28°C° 0 mm 3 mps 702 mmHg 24%
04:00 +28°C° 0 mm 4 mps 703 mmHg 26%
05:00 +28°C° 0 mm 4 mps 703 mmHg 27%
06:00 +28°C° 0 mm 5 mps 703 mmHg 29%
07:00 +30°C° 0 mm 5 mps 704 mmHg 27%
08:00 +33°C° 0 mm 6 mps 705 mmHg 26%
09:00 +35°C° 0 mm 6 mps 706 mmHg 24%
10:00 +38°C° 0 mm 6 mps 706 mmHg 21%
11:00 +40°C° 0 mm 6 mps 705 mmHg 17%
12:00 +41°C° 0 mm 5 mps 705 mmHg 14%
13:00 +42°C° 0 mm 5 mps 704 mmHg 14%
14:00 +42°C° 0 mm 5 mps 704 mmHg 14%
15:00 +42°C° 0 mm 4 mps 703 mmHg 13%
16:00 +39°C° 0 mm 3 mps 703 mmHg 15%
17:00 +38°C° 0 mm 3 mps 702 mmHg 16%
18:00 +36°C° 0 mm 2 mps 702 mmHg 18%
19:00 +35°C° 0 mm 2 mps 702 mmHg 19%
20:00 +32°C° 0 mm 2 mps 703 mmHg 20%
21:00 +31°C° 0 mm 2 mps 703 mmHg 22%
22:00 +30°C° 0 mm 2 mps 703 mmHg 23%
23:00 +30°C° 0 mm 3 mps 703 mmHg 24%

1 October, Thursday

Time Temperature Precipitation Wind Pressure Humidity
00:00 +29°C° 0 mm 3 mps 704 mmHg 25%
01:00 +28°C° 0 mm 3 mps 703 mmHg 26%
02:00 +28°C° 0 mm 3 mps 703 mmHg 28%
03:00 +27°C° 0 mm 3 mps 702 mmHg 29%
04:00 +27°C° 0 mm 3 mps 703 mmHg 31%
05:00 +26°C° 0 mm 3 mps 703 mmHg 32%
06:00 +26°C° 0 mm 3 mps 703 mmHg 34%
07:00 +28°C° 0 mm 3 mps 704 mmHg 31%
08:00 +32°C° 0 mm 4 mps 705 mmHg 27%
09:00 +34°C° 0 mm 5 mps 706 mmHg 24%
10:00 +36°C° 0 mm 4 mps 706 mmHg 22%
11:00 +38°C° 0 mm 3 mps 705 mmHg 19%
12:00 +40°C° 0 mm 3 mps 705 mmHg 16%
13:00 +42°C° 0 mm 3 mps 704 mmHg 15%
14:00 +41°C° 0 mm 2 mps 704 mmHg 14%
15:00 +42°C° 0 mm 2 mps 703 mmHg 12%
16:00 +40°C° 0 mm 2 mps 703 mmHg 14%
17:00 +37°C° 0 mm 1 mps 702 mmHg 16%
18:00 +35°C° 0 mm 1 mps 702 mmHg 17%
19:00 +34°C° 0 mm 1 mps 702 mmHg 19%
20:00 +33°C° 0 mm 1 mps 703 mmHg 20%
21:00 +31°C° 0 mm 1 mps 703 mmHg 22%
22:00 +31°C° 0 mm 1 mps 703 mmHg 23%
23:00 +30°C° 0 mm 1 mps 703 mmHg 25%

2 October, Friday

Time Temperature Precipitation Wind Pressure Humidity
00:00 +29°C° 0 mm 1 mps 703 mmHg 27%
01:00 +28°C° 0 mm 1 mps 703 mmHg 28%
02:00 +28°C° 0 mm 1 mps 703 mmHg 29%
03:00 +27°C° 0 mm 1 mps 702 mmHg 31%
04:00 +27°C° 0 mm 1 mps 703 mmHg 30%
05:00 +26°C° 0 mm 1 mps 703 mmHg 30%
06:00 +26°C° 0 mm 1 mps 703 mmHg 30%
07:00 +29°C° 0 mm 2 mps 704 mmHg 26%
08:00 +33°C° 0 mm 3 mps 705 mmHg 21%
09:00 +36°C° 0 mm 4 mps 706 mmHg 17%
10:00 +38°C° 0 mm 3 mps 706 mmHg 15%
11:00 +40°C° 0 mm 3 mps 706 mmHg 13%
12:00 +42°C° 0 mm 2 mps 706 mmHg 12%
13:00 +42°C° 0 mm 2 mps 705 mmHg 11%
14:00 +42°C° 0 mm 2 mps 704 mmHg 11%
15:00 +43°C° 0 mm 3 mps 703 mmHg 11%
16:00 +41°C° 0 mm 2 mps 703 mmHg 12%
17:00 +39°C° 0 mm 2 mps 702 mmHg 13%
18:00 +36°C° 0 mm 1 mps 702 mmHg 14%
19:00 +35°C° 0 mm 1 mps 702 mmHg 15%
20:00 +33°C° 0 mm 1 mps 703 mmHg 16%
21:00 +31°C° 0 mm 1 mps 703 mmHg 17%
22:00 +30°C° 0 mm 1 mps 703 mmHg 18%
23:00 +29°C° 0 mm 1 mps 703 mmHg 20%
Show more